Location: *
(42.9127°N, 93.4783°W)
Time: 02:44:12
(UTC+00:00)

Daily predictions for brighter satellites

Satellite Brightness Start Highest point End
(mag) Time Altitude Azimuth Time Altitude Azimuth Time Altitude Azimuth
Aureole 3 Rocket 4.4 02:04:44 10° NNE 02:08:14 26° E 02:12:41 10° SE
Okean O Rocket 1.7 02:04:09 10° SSE 02:08:32 71° ENE 02:12:58 10° N
Cosmos-2242 3.2 02:05:52 10° SSW 02:10:04 76° W 02:14:19 10° N
USA 290 2.6 02:07:36 10° N 02:10:45 47° ENE 02:13:51 10° SE
Cosmos 2056 Rocket 4.2 02:06:51 10° N 02:11:56 40° ENE 02:16:56 10° SE
Cosmos 1072 Rocket 4.5 02:07:45 10° N 02:13:55 83° E 02:20:02 10° S
DELTA 2 DEB (DPAF) 4.1 02:16:24 10° NNE 02:20:39 83° WNW 02:24:51 10° SSW
Cosmos 1943 Rocket 3.0 02:18:37 10° NW 02:24:06 51° WSW 02:29:30 10° S
Cosmos 2084 3.9 02:21:24 10° NNW 02:24:57 39° NE 02:28:22 11° ESE
Cosmos 44 3.5 02:20:42 10° NNW 02:25:28 57° NE 02:29:44 11° SE
SL-8 R/B 3.8 02:23:44 10° SW 02:28:20 54° SE 02:32:58 10° ENE
Cosmos 1766 Rocket 4.4 02:28:25 10° N 02:32:31 35° ENE 02:36:11 12° SE
FALCON 9 R/B 3.2 02:34:00 10° WSW 02:38:18 43° S 02:50:45 10° ESE
ERS-1 Rocket 3.8 02:35:26 12° SE 02:39:32 35° ENE 02:44:03 10° N
Cosmos 494 Rocket 4.4 02:36:34 10° S 02:41:16 40° ESE 02:46:01 10° NE
ATLAS 3B R/B 3.1 02:33:50 10° NW 02:41:43 83° WSW 02:48:59 12° SSE
Cosmos 2221 2.5 02:38:14 10° S 02:42:29 63° E 02:46:46 10° NNE
Cosmos 2278 Rocket 4.4 02:39:49 10° NW 02:43:54 21° W 02:47:58 10° SSW
Cosmos 1464 Rocket 4.5 02:38:20 10° NNW 02:44:32 63° W 02:50:38 10° S
USA 245 4.0 02:44:24 14° E 02:44:58 15° ENE 02:46:24 10° NNE
Lacrosse 5 rocket 3.8 02:42:07 10° W 02:45:48 27° NNW 02:49:27 10° NNE
CZ-4C R/B 3.2 02:43:12 10° NNE 02:47:01 80° ESE 02:50:58 10° S
IRS-1C Rocket 4.3 02:42:58 12° SSE 02:47:41 58° ENE 02:52:51 10° N
Okean-O 2.7 02:44:04 10° SSE 02:48:28 83° WSW 02:52:54 10° NNW
Centaur D AC-29 3.9 02:45:13 10° SSW 02:49:30 20° SE 02:59:55 10° E
USA 281 4.3 02:49:24 12° ESE 02:54:41 32° NE 03:00:21 10° N
Cosmos 2297 3.7 02:49:41 10° NNW 02:55:27 79° ENE 03:00:02 16° SSE
Cosmos 1371 Rocket 4.1 02:52:43 10° NNW 02:58:06 83° WSW 03:02:42 14° SSE
MetOp-B 4.1 02:54:08 13° SSE 02:59:00 82° ENE 03:04:23 10° NNW
Cosmos 921 Rocket 3.0 02:56:31 10° SSW 03:01:00 87° ESE 03:05:30 10° NNE
Lacrosse 5 2.6 02:57:02 10° WNW 03:01:53 44° SW 03:05:39 16° SSE
Meteor 1-14 Rocket 4.4 03:00:54 10° N 03:06:44 64° ENE 03:11:08 18° SSE
Cosmos 1536 4.1 03:06:35 10° NNE 03:09:51 25° ENE 03:11:11 21° ESE
Cosmos 2279 Rocket 4.3 03:06:51 10° N 03:12:52 51° ENE 03:16:51 21° SE
Terra 1.9 03:11:35 22° SSE 03:14:31 60° ENE 03:19:10 10° N
SPOT 3 Rocket 3.9 03:12:33 22° SE 03:15:38 49° ENE 03:20:36 10° N
Cosmos 1743 2.6 03:13:20 10° N 03:16:58 78° W 03:19:07 23° S
Cosmos 1634 Rocket 4.0 03:12:15 10° N 03:18:34 84° E 03:23:26 18° S
GEOS 3 Rocket 3.7 03:13:40 10° NE 03:18:40 48° ESE 03:23:33 10° SSW
SL-16 R/B 3.5 03:13:34 10° SW 03:18:55 43° WNW 03:24:19 10° NNE
IRS-1A Rocket 4.3 03:16:27 16° S 03:20:59 80° WSW 03:26:35 10° NNW
Cosmos 1603 4.1 03:17:41 18° S 03:21:33 42° ESE 03:26:54 10° NE
Spot 2 Rocket 3.5 03:20:07 24° SSE 03:23:07 66° ENE 03:28:08 10° N
Meteor 2-6 Rocket 4.2 03:17:34 10° S 03:23:12 87° W 03:28:44 10° N
SPOT 5 3.2 03:21:11 15° S 03:24:55 55° W 03:29:18 10° NNW
Cosmos 2263 4.2 03:20:15 10° NNW 03:25:58 77° ENE 03:29:20 26° SSE
Resurs 01 Rocket 4.3 03:27:26 10° WSW 03:29:45 14° W 03:32:03 10° WNW
Cosmos 2369 Rocket 2.3 03:25:30 10° NNW 03:31:05 73° WSW 03:34:30 24° SSE
Cosmos 1151 Rocket 4.5 03:31:33 21° E 03:31:57 21° E 03:35:12 10° NE
ISS -2.8 03:31:10 10° NW 03:34:22 41° NNE 03:35:42 27° ENE
Cosmos 1500 Rocket 4.3 03:31:04 10° N 03:35:05 37° ENE 03:36:17 30° ESE
MetOp-A 4.5 03:34:19 28° ESE 03:36:02 39° ENE 03:40:29 10° N
Cosmos 1726 1.6 03:33:07 10° N 03:36:14 69° E 03:36:42 57° SE
Okean 3 Rocket 3.5 03:33:20 10° N 03:37:44 84° W 03:39:52 30° S
USA 276 2.6 03:37:55 10° WNW 03:39:27 37° W 03:39:27 37° W
Cosmos 1842 Rocket 3.8 03:40:11 17° SSW 03:43:29 68° W 03:47:54 10° N
USA 229 DEB 4.0 03:36:05 10° NW 03:43:38 79° WSW 03:48:32 27° SSE
USA 229 4.0 03:36:11 10° NW 03:43:45 80° WSW 03:48:38 27° SSE
Cosmos 1805 Rocket 4.2 03:40:47 10° N 03:44:54 39° ENE 03:45:58 33° ESE
Okean O Rocket 4.4 03:43:58 10° WSW 03:45:17 11° W 03:46:37 10° WNW
Ariane Rocket 3.0 03:43:07 28° S 03:45:49 80° WSW 03:50:56 10° NNW
BREEZE-M DEB (TANK) 3.8 03:31:36 10° SW 03:47:35 61° SE 03:51:33 10° ENE
USA 306 4.0 03:45:26 10° NW 03:48:59 34° NNE 03:50:49 22° ENE
ARGOS Delta rocket 4.5 03:46:26 21° SSW 03:49:41 54° W 03:54:28 10° NNW
Meteor 1-27 Rocket 3.7 03:51:15 33° SSE 03:53:39 61° E 03:59:06 10° NNE
Cosmos 2180 Rocket 4.4 03:49:54 10° N 03:56:07 80° E 03:59:06 32° SSE
Cosmos 1452 Rocket 3.4 03:52:47 10° NNW 03:58:03 84° WSW 04:00:07 38° SSE
Cosmos 1943 3.6 03:53:01 10° SW 03:58:39 63° WNW 04:04:17 10° NNE
Spot 1 3.8 03:55:02 10° NNE 03:59:08 89° ESE 04:00:37 39° SSW
Cosmos 1340 Rocket 2.9 04:01:12 52° ESE 04:01:28 53° E 04:05:23 10° NNE
SL-8 R/B 4.4 04:06:10 10° W 04:10:49 54° NNW 04:15:30 10° ENE
ARIANE 5 R/B 3.6 04:14:14 30° E 04:14:50 31° ENE 04:18:39 10° N
Sich 1 2.9 04:10:28 10° N 04:14:51 85° E 04:15:38 60° SSE
Meteor 2-4 Rocket 4.3 04:14:07 37° ESE 04:15:26 42° E 04:20:59 10° NNE
Cosmos 1733 2.9 04:14:12 10° N 04:17:33 78° NNE 04:17:33 78° NNE
Meteor 2-9 Rocket 4.3 04:11:54 10° N 04:17:46 85° W 04:20:00 40° S
ERS-1 Rocket 4.5 04:15:21 17° SW 04:18:16 29° W 04:22:38 10° NW
Cosmos 1626 4.0 04:26:23 17° NE 04:26:23 17° NE 04:27:32 10° NE
H-2A R/B 3.9 04:26:26 26° ENE 04:26:45 26° ENE 04:30:15 10° N
Cosmos 1743 Rocket 3.5 04:22:36 10° N 04:27:01 78° W 04:27:41 62° SSW
Landsat 5 4.2 04:24:51 10° N 04:28:27 43° WNW 04:29:35 33° WSW
Lacrosse 4 Rocket 3.2 04:25:55 10° N 04:29:05 21° NE 04:30:02 19° ENE
USA 59 Rocket 1.1 04:25:43 10° NNW 04:29:30 39° NE 04:30:54 32° E
Cosmos 220 Rocket 4.5 04:31:24 46° E 04:31:24 46° E 04:35:04 10° NNE
Cosmos 1428 Rocket 4.3 04:32:48 45° S 04:34:49 78° E 04:40:57 10° N
Cosmos 614 Rocket 3.9 04:36:01 59° SSE 04:36:52 71° ESE 04:42:04 10° NNE
USA 281 3.5 04:36:16 36° SSW 04:38:50 56° WSW 04:45:20 10° NNW
Cosmos 1092 Rocket 4.0 04:38:02 47° SSE 04:39:46 66° E 04:46:01 10° NNE
Cosmos 1975 3.1 04:37:19 10° N 04:40:53 57° NE 04:40:53 57° NE
NOSS 2-1 (D) 4.1 04:39:16 10° NNW 04:43:11 53° NE 04:44:04 46° E
Cosmos 1302 Rocket 3.9 04:39:29 10° NNW 04:44:42 80° WSW 04:45:34 62° S
Cosmos 1992 Rocket 4.2 04:43:43 10° NNW 04:48:52 56° ENE 04:49:43 50° ESE
IRIDIUM 104 4.2 04:44:35 10° N 04:49:51 88° E 04:50:41 64° S
Terra 4.1 04:50:17 11° WSW 04:52:30 15° W 04:55:07 10° NW
Cosmos 1340 3.8 04:50:04 10° NNW 04:52:37 34° WNW 04:52:37 34° WNW
Cosmos 2195 Rocket 4.4 04:51:31 46° SSW 04:53:28 83° W 04:59:37 10° N
CZ-2C R/B 3.6 04:53:16 10° N 04:57:46 78° WNW 04:58:05 73° WSW
IRIDIUM 114 4.3 04:53:45 10° N 04:58:59 77° W 04:59:49 62° SSW
Cosmos 1818 3.5 05:00:04 63° SE 05:00:12 63° ESE 05:05:37 10° NE
Cosmos 1328 Rocket 3.5 05:07:06 79° N 05:07:06 79° N 05:11:12 10° N
IRIDIUM 103 4.5 05:02:56 10° N 05:08:06 63° W 05:08:57 55° SW
Cosmos 1515 Rocket 4.4 05:09:54 39° ENE 05:09:54 39° ENE 05:13:16 10° NNE
Cosmos 1151 Rocket 4.3 05:08:17 30° W 05:09:11 33° WNW 05:13:08 10° N
ISS -1.0 05:07:59 10° WNW 05:08:29 13° W 05:08:29 13° W
Cosmos 2082 Rocket 4.4 05:12:28 11° E 05:12:28 11° E 05:13:29 10° ENE
Spot 4 3.9 05:12:22 61° E 05:12:32 62° ENE 05:17:14 10° N
Cosmos 1833 Rocket 3.2 05:13:06 42° E 05:13:06 42° E 05:18:05 10° NE
CZ-3 Stage 3 4.3 04:54:19 10° WSW 05:16:07 36° S 05:16:07 36° S
NOSS 2-1 (C) 3.7 05:15:02 10° NW 05:18:57 77° W 05:18:57 77° W
Cosmos 1470 Rocket 3.7 05:17:09 10° N 05:21:14 69° NE 05:21:14 69° NE
Cosmos 1140 Rocket 4.3 05:22:15 36° E 05:22:15 36° E 05:26:30 10° NE
Cosmos 1766 4.1 05:18:05 10° N 05:20:51 46° N 05:20:51 46° N
USA 306 4.4 05:19:04 10° WNW 05:20:55 25° WNW 05:20:55 25° WNW
Celestis-02/Orion 38 4.5 05:26:04 70° ESE 05:26:35 79° ENE 05:31:52 10° NNW
Cosmos 1470 4.1 05:25:42 10° N 05:28:10 31° NE 05:28:10 31° NE
H-2A R/B 3.6 05:26:32 10° NE 05:29:24 26° ENE 05:29:24 26° ENE
ALOS 2 2.9 05:30:51 62° NE 05:30:51 62° NE 05:34:53 10° N
Cosmos 1666 Rocket 4.4 05:26:58 10° NNW 05:30:43 41° W 05:30:43 41° W
Cosmos 1633 Rocket 3.6 05:27:18 10° NNW 05:31:16 50° WNW 05:31:16 50° WNW
Cosmos 1269 Rocket 4.3 05:41:11 54° WSW 05:41:59 61° WNW 05:47:13 10° NNE
Cosmos 407 Rocket 4.3 05:44:50 39° E 05:44:50 39° E 05:49:17 10° NE
Cosmos 1656 3.6 05:39:12 10° NNW 05:44:36 65° WSW 05:44:44 65° WSW
Cosmos 2251 Rocket 4.4 05:45:41 36° E 05:45:41 36° E 05:49:59 10° NE
NOSS 3-3 (A) 4.0 05:43:44 45° WSW 05:45:22 67° NW 05:51:39 10° NNE
Cosmos 1933 Rocket 3.9 05:42:30 10° N 05:46:17 61° NNE 05:46:17 61° NNE
USA 267 3.1 05:44:15 10° NE 05:50:48 74° SE 05:52:17 55° SSW
ARIANE 5 R/B 4.3 05:51:42 23° W 05:51:42 23° W 05:54:45 10° NW
SL-08 ROCKET BODY 4.5 05:53:53 58° SE 05:54:41 63° E 06:00:48 10° NNE
S3M 4.0 05:51:14 10° N 05:57:38 72° E 05:58:48 58° SE
H-2A R/B 4.1 06:02:25 25° WNW 06:02:25 25° WNW 06:05:12 10° NW
Cosmos 2315 Rocket 4.4 05:57:24 10° N 06:03:34 54° ENE 06:04:55 46° ESE
NOSS 3-4 (A) 4.5 05:57:15 10° NNW 06:03:57 52° NE 06:09:12 21° ESE
NOSS 3-4 (C) 4.5 05:57:22 10° NNW 06:04:03 52° NE 06:09:22 20° ESE
Lacrosse 5 rocket 4.4 06:02:59 10° NNW 06:05:18 14° NNE 06:07:34 10° NE
Cosmos 2285 Rocket 3.8 06:06:17 67° S 06:07:09 80° ESE 06:13:30 10° NNE
Cosmos 1553 Rocket 4.3 06:01:36 10° NNW 06:07:27 51° W 06:08:18 48° WSW
Lacrosse 4 Rocket 2.9 06:03:39 10° NW 06:05:57 28° WNW 06:05:57 28° WNW
Cosmos 1697 Rocket 2.5 06:04:41 10° NNW 06:10:21 83° ENE 06:10:50 74° SE
Meteor 1-13 Rocket 4.2 06:12:56 72° S 06:13:37 90° E 06:19:34 10° N
Cosmos 1980 Rocket 3.0 06:11:55 10° NNW 06:17:25 47° ENE 06:19:10 36° ESE
Cosmos 44 Rocket 3.3 06:14:12 10° NNW 06:19:06 71° NE 06:19:06 71° NE
USA 59 Rocket 2.0 06:15:21 10° WNW 06:17:27 22° W 06:17:27 22° W
USA 234 3.8 06:19:10 10° ESE 06:25:33 57° NNE 06:31:57 10° NW
In-Cosmos 22 4.1 06:25:09 73° SSW 06:25:43 83° W 06:31:31 10° N
COSMOS 2406 3.9 06:25:37 40° ESE 06:25:44 40° ESE 06:31:04 10° NE
Cosmos 1607 4.1 06:26:53 51° WSW 06:28:33 74° NW 06:35:04 10° NNE
Meteor 2-10 Rocket 3.9 06:27:13 10° N 06:33:02 67° ENE 06:33:58 57° SE
Cosmos 2228 Rocket 3.4 06:35:01 59° ENE 06:35:01 59° ENE 06:38:58 10° NNE
Cosmos 1655 Rocket 3.9 06:33:57 63° SSW 06:35:03 82° W 06:41:28 10° N
Meteor 1-15 Rocket 4.1 06:38:19 10° NNW 06:43:57 73° W 06:44:20 70° SW
Cosmos 2266 Rocket 4.5 06:44:22 42° WSW 06:45:35 47° WNW 06:51:36 10° N
Meteor 1-22 Rocket 4.0 06:42:14 10° NNW 06:47:31 67° W 06:47:41 67° WSW
SL-16 R/B 4.3 06:43:23 10° N 06:47:46 22° NE 06:52:07 10° E
Cosmos 1400 Rocket 3.4 06:52:53 54° N 06:52:53 54° N 06:56:04 10° N
Meteor 1-21 4.2 06:53:57 65° SSE 06:54:41 75° E 07:00:25 10° NNE
Cosmos 2082 Rocket 2.0 06:54:16 71° S 06:54:55 84° ESE 07:00:40 10° NNE
Meteor 2-20 4.4 06:48:46 10° N 06:54:58 86° E 06:56:12 60° SSE
Cosmos 1833 Rocket 4.1 06:54:45 24° W 06:56:51 30° NW 07:01:47 10° N
Cosmos 1733 Rocket 3.2 06:56:01 10° N 06:59:54 71° NNW 06:59:54 71° NNW
Meteor 1-12 Rocket 4.3 06:56:29 10° NNW 07:02:20 67° W 07:03:06 60° SW
CZ-2D R/B 4.1 07:00:54 10° NE 07:04:34 18° E 07:06:34 15° ESE
GP-B 4.1 07:00:36 10° NNW 07:04:17 37° WNW 07:04:17 37° WNW
Cosmos 1346 Rocket 3.4 07:01:59 10° N 07:05:14 54° NNE 07:05:14 54° NNE
H-2A R/B 3.5 07:02:13 10° N 07:06:00 28° WNW 07:06:13 28° WNW
DELTA 2 R/B (1) 3.8 07:09:07 51° SE 07:09:07 51° SE 07:13:35 10° E
Okean 2 4.0 07:12:29 46° ENE 07:12:29 46° ENE 07:15:56 10° NNE
Cosmos 1300 4.1 07:13:26 10° NNW 07:15:31 30° NW 07:15:31 30° NW
Resurs 1-4 Rocket 3.7 07:14:15 10° NE 07:18:30 24° E 07:20:15 20° ESE
SL-14 R/B 4.5 07:22:25 33° NW 07:22:25 33° NW 07:25:19 10° N
Cosmos 676 Rocket 3.9 07:23:42 66° SW 07:24:26 82° WNW 07:29:48 10° NNE
Cosmos 1953 2.8 07:21:59 10° N 07:25:47 53° ENE 07:25:47 53° ENE
Cosmos 1703 Rocket 3.9 07:27:15 52° ESE 07:27:35 54° E 07:31:55 10° NNE
Cosmos 468 Rocket 3.9 07:24:08 10° NNW 07:29:25 73° WSW 07:30:00 65° SSW
Cosmos 1954 Rocket 4.2 07:29:24 52° WSW 07:30:18 60° WNW 07:35:34 10° NNE
Cosmos 2278 4.3 07:24:42 10° NNW 07:30:21 56° ENE 07:34:03 21° SE
Cosmos 1862 Rocket 4.3 07:32:30 40° WNW 07:32:30 40° WNW 07:36:26 10° N
USA 267 4.3 07:27:29 10° NE 07:33:32 42° NNW 07:39:35 10° W
SL-8 R/B 3.6 07:31:50 10° WNW 07:36:39 82° NNE 07:41:26 10° ESE
CZ-2C R/B 3.9 07:33:41 14° SE 07:37:27 35° ENE 07:42:07 10° N
Cosmos 1763 Rocket 4.1 07:33:16 10° NW 07:38:04 40° W 07:38:04 40° W
Cosmos 2333 Rocket 4.2 07:38:36 10° N 07:43:23 27° NE 07:48:10 10° ESE
Lacrosse 5 rocket 2.5 07:40:43 10° NW 07:44:37 41° NE 07:48:21 10° ESE
Cosmos 1356 Rocket 4.4 07:45:34 33° WNW 07:45:34 33° WNW 07:49:08 10° N
Cosmos 2322 Rocket 3.5 07:42:22 10° N 07:47:37 38° ENE 07:52:51 10° SE
Cosmos 1745 Rocket 3.9 07:47:13 43° S 07:49:26 86° E 07:55:45 10° N
MOZ.5/SAFIR/RUBIN 5/SL-8 3.7 07:52:29 58° S 07:53:24 81° WSW 07:58:09 10° NNW
NPP 3.8 07:49:19 10° NNE 07:54:41 65° ESE 07:56:33 40° SSE
NOSS 3-4 (A) 4.4 07:48:15 10° NW 07:54:52 41° WSW 07:56:33 36° SW
NOSS 3-4 (C) 4.4 07:48:21 10° NW 07:54:59 41° WSW 07:56:43 36° SW
Cosmos 540 Rocket 4.1 07:51:03 10° NW 07:55:46 38° WSW 07:55:46 38° WSW
Okean 1-7 3.4 07:56:25 45° W 07:56:36 45° WNW 08:00:46 10° N
ATLAS CENTAUR R/B 4.4 07:45:19 10° NW 07:56:42 39° WSW 07:59:39 33° SSW
Cosmos 1315 Rocket 2.7 08:00:47 64° W 08:00:49 64° W 08:04:42 10° N
Cosmos 1980 Rocket 3.3 07:56:27 10° NW 08:00:53 27° W 08:00:53 27° W
ALOS 4.4 07:59:08 10° NE 08:02:25 19° E 08:05:29 11° SE
Helios 1A Rocket 4.2 08:04:36 25° WNW 08:04:36 25° WNW 08:07:02 10° NW
ADEOS II 3.1 08:00:05 10° NNE 08:05:00 39° E 08:07:43 23° SSE
SJ 16-02 2.2 08:06:53 32° SE 08:08:09 40° ESE 08:12:11 10° NNE
USA 234 3.4 08:05:25 28° S 08:08:37 48° SW 08:14:56 10° WNW
IDEFIX/ARIANE 42P 2.5 08:04:18 10° NNE 08:09:35 89° E 08:11:29 41° SSW
COSMOS 2406 4.4 08:07:38 24° W 08:10:04 33° NW 08:15:16 10° N
BREEZE-M DEB (TANK) 4.0 08:07:58 10° WNW 08:13:40 32° N 08:16:10 10° ENE
Nadezhda 1 Rocket 4.1 08:07:38 10° NNW 08:13:57 61° W 08:16:37 35° SSW
Cosmos 1703 4.2 08:18:18 29° SE 08:19:35 40° E 08:23:06 10° NNE
Genesis I 2.9 08:20:19 62° SSE 08:20:35 65° ESE 08:24:05 10° NE
Cosmos 1455 3.1 08:17:36 10° NNW 08:20:06 31° WNW 08:20:06 31° WNW
Cosmos 1782 Rocket 3.5 08:22:26 10° NNW 08:26:47 63° W 08:27:54 44° SSW
Cosmos 1908 Rocket 4.4 08:23:27 10° NNW 08:27:21 31° W 08:27:39 31° W
BREEZE-M DEB (TANK) 4.1 08:25:57 32° W 08:27:30 67° NNW 08:36:06 10° ENE
CZ-2C R/B 3.4 08:23:21 10° NNE 08:29:12 75° ESE 08:32:29 27° S
Cosmos 1850 Rocket 4.2 08:27:14 35° SW 08:29:16 58° WNW 08:34:29 10° NNE
SL-16 R/B 2.2 08:26:43 10° NNW 08:32:20 64° WSW 08:36:03 22° S
RESURS DK-1 3.9 08:29:05 10° N 08:32:52 36° ENE 08:36:37 10° SE
Meteor 1-4 Rocket 4.3 08:33:53 15° WNW 08:33:53 15° WNW 08:35:16 10° NNW
Cosmos 1741 Rocket 4.3 08:32:29 33° SW 08:34:34 55° WNW 08:39:45 10° NNE
Cosmos 2082 Rocket 4.2 08:36:05 11° W 08:39:44 18° NW 08:43:35 10° N
AQUA 4.0 08:36:25 10° NNE 08:41:08 68° ESE 08:43:54 24° S
H-2A R/B 4.2 08:39:04 10° N 08:42:43 35° WNW 08:43:45 30° WSW
Cosmos 968 Rocket 3.6 08:41:58 31° SW 08:44:17 62° WNW 08:49:23 10° NNE
Cosmos 2219 Rocket 3.4 08:39:32 10° NNW 08:44:54 43° ENE 08:50:16 10° SE
CZ-2D R/B 2.3 08:39:35 10° N 08:45:00 62° WNW 08:47:51 28° SW
CRYOSAT 2 4.3 08:40:16 10° N 08:45:09 73° W 08:47:45 28° SSW
SL-27 R/B 1.7 08:46:45 68° WSW 08:46:59 75° WNW 08:49:47 10° NNE
Cosmos 1825 4.1 08:47:32 10° SE 08:50:17 23° E 08:53:02 10° NE
BREEZE-M R/B 4.2 08:47:03 24° WSW 08:50:27 88° SSE 09:08:58 10° ENE
Cosmos 1242 Rocket 3.3 08:50:48 25° WNW 08:50:48 25° WNW 08:53:10 10° NNW
Cosmos 1709 Rocket 4.4 08:48:17 26° SW 08:51:37 48° WNW 08:57:45 10° N
ATLAS 2AS CENTAUR R/B 3.7 08:45:40 10° NNW 08:52:18 48° NE 08:58:40 10° ESE
Cosmos 2360 Rocket 2.1 08:48:20 10° NNW 08:54:03 87° WSW 08:59:43 10° SSE
DELTA 2 R/B (1) 3.6 08:49:50 15° W 08:54:14 54° SSW 08:59:39 10° ESE
SL-16 R/B 2.6 08:48:37 10° SSE 08:54:53 87° ENE 09:01:12 10° NNW
OAO 3 Rocket 4.0 08:54:36 28° SSW 08:55:31 30° S 08:59:46 10° SE
Meteor 1-24 Rocket 3.9 08:51:31 20° S 08:55:49 89° W 09:01:52 10° N
Cosmos 1892 3.9 08:55:11 12° SSE 08:58:00 34° E 09:01:13 10° NNE
Resurs 1-4 Rocket 2.6 08:53:29 10° N 08:58:27 44° WNW 09:01:18 23° SW
Cosmos 2181 Rocket 4.0 08:52:11 10° N 08:58:35 83° W 09:04:50 10° S
Cosmos 2221 Rocket 4.2 08:58:04 13° S 09:01:58 56° E 09:06:26 10° NNE
Cosmos 2242 Rocket 4.3 09:00:35 26° SW 09:02:26 38° WNW 09:06:38 10° N
Cosmos 1408 3.3 09:02:22 25° W 09:02:39 26° WNW 09:05:14 10° NNW
Tiangong -0.4 09:08:06 19° SSE 09:08:36 19° SSE 09:10:54 10° ESE
SL-4 R/B 2.5 09:06:32 25° SSW 09:08:50 54° SE 09:13:10 10° ENE
Sich 1 Rocket 3.9 09:04:54 10° N 09:09:25 69° E 09:13:50 10° SSE
FENGYUN 3A 3.8 09:04:33 10° N 09:09:51 60° WNW 09:13:34 19° SW
Cosmos 2151 Rocket 3.7 09:07:03 10° N 09:11:32 79° E 09:15:58 10° S
IRAS Rocket 4.2 09:07:42 10° NNE 09:13:14 88° WNW 09:17:50 15° SSW
Cosmos 2098 Rocket 3.9 09:09:55 10° NNW 09:15:08 58° W 09:21:13 10° S
Cosmos 839 Rocket 4.1 09:09:09 10° NW 09:16:14 82° WSW 09:22:24 10° SSE
CZ-2C R/B 3.4 09:15:09 20° SW 09:17:44 30° W 09:22:15 10° NW
Lacrosse 5 rocket 2.1 09:19:23 10° WNW 09:22:48 27° SW 09:26:04 10° S
BREEZE-M DEB (TANK) 4.1 09:21:49 10° NNW 09:23:36 24° NNE 09:26:20 10° E
Cosmos 1814 Rocket 4.4 09:19:17 10° NNW 09:24:11 42° WSW 09:29:07 10° S
Cosmos 1674 Rocket 3.5 09:20:37 15° SSW 09:24:20 78° W 09:28:47 10° N
Okean 2 Rocket 3.0 09:19:56 10° N 09:24:21 83° W 09:28:44 10° S
Cosmos 2333 Rocket 2.4 09:22:25 10° NW 09:27:57 52° WSW 09:33:29 10° S
Cosmos 405 Rocket 2.4 09:27:54 10° NNW 09:31:31 82° W 09:35:09 10° S
Cosmos 2322 Rocket 2.9 09:26:32 10° NW 09:31:32 33° WSW 09:36:32 10° SSW
Cosmos 1295 Rocket 4.5 09:30:51 10° SSW 09:36:56 70° W 09:43:02 10° N
Meteor 2-5 Rocket 4.4 09:32:53 14° SW 09:37:32 41° WNW 09:43:09 10° N
Cosmos 2297 Rocket 4.1 09:34:02 10° SSE 09:38:36 26° ESE 09:43:10 10° NE
ATLAS CENTAUR R/B 2.2 09:36:15 10° S 09:39:27 36° ESE 09:42:43 10° NE
ALOS 2.7 09:35:26 10° N 09:39:50 45° WNW 09:43:48 12° SW
Cosmos 1378 Rocket 4.1 09:38:01 14° SW 09:41:25 41° WNW 09:45:30 10° N
Cosmos 1486 Rocket 4.2 09:36:49 10° S 09:42:00 71° ESE 09:47:11 10° NNE
Cosmos 1570 Rocket 4.0 09:37:41 10° NNW 09:42:58 70° WSW 09:48:15 10° S
ADEOS II 3.3 09:40:02 10° N 09:44:26 28° WNW 09:48:35 11° WSW
Cosmos 2208 Rocket 4.0 09:41:12 10° NNW 09:46:31 86° WSW 09:51:43 10° SSE
SJ 16-02 3.0 09:43:39 11° WSW 09:46:40 20° WNW 09:49:51 10° NNW
Okean 1 Rocket 3.0 09:45:50 10° NNW 09:50:09 69° W 09:54:26 10° S
Cosmos 2074 Rocket 4.4 09:47:43 10° SSW 09:53:38 45° WNW 09:59:35 10° N
METEOR-M 4.2 09:50:04 10° N 09:55:25 74° WNW 10:00:44 10° SSW
CZ-2C R/B 2.4 09:51:33 10° NNE 09:56:20 82° ESE 10:00:57 10° SSW
Cosmos 1241 Rocket 4.5 09:51:09 10° SW 09:57:21 79° WNW 10:03:36 10° NNE
UNK 4.4 09:53:22 10° SSW 09:57:36 35° W 10:01:52 10° NNW
IRS-1D 3.9 09:54:03 10° NNE 09:59:24 72° ESE 10:04:39 10° S
COSMOS 2455 4.2 09:54:06 10° S 09:59:32 37° ESE 10:05:00 10° NE
Envisat 3.1 09:55:08 10° N 10:00:10 65° WNW 10:05:10 10° SSW
Cosmos 158 Rocket 4.1 09:59:53 10° NNW 10:05:15 68° WSW 10:10:31 10° S
RESURS DK-1 3.7 10:07:22 10° WNW 10:10:20 20° WSW 10:13:18 10° SSW
